FW9881 Weather Reports


time (UTC)temp
C
wind
direction
speed
KPH
gust
KPH
rain 1hr
cm
rain 24hr
cm
rain mn
cm
humidity
%
barometer
mb
20260831231624 20 225 0.0 0.0 0.00 0.00 0.00 71 1021.7
20260831230524 21 225 0.0 0.0 0.00 0.00 0.00 68 1021.8
20260831225523 21 225 0.0 0.0 0.00 0.00 0.00 67 1022.0
20260831224523 22 225 0.0 0.0 0.00 0.00 0.00 64 1022.0
20260831223524 23 225 0.0 0.0 0.00 0.00 0.00 62 1021.9
20260831222525 23 225 0.0 0.0 0.00 0.00 0.00 60 1022.0
20260831221524 23 157 1.6 3.2 0.00 0.00 0.00 58 1021.8
20260831220526 23 247 1.6 6.4 0.00 0.00 0.00 56 1021.6
20260831215524 24 247 4.8 8.0 0.00 0.00 0.00 56 1021.5
20260831214523 23 225 3.2 6.4 0.00 0.00 0.00 55 1021.6
20260831213524 24 225 3.2 4.8 0.00 0.00 0.00 54 1021.5
20260831211522 24 202 3.2 6.4 0.00 0.00 0.00 54 1021.4
20260831210525 24 314 0.0 4.8 0.00 0.00 0.00 54 1021.6
20260831205522 23 225 1.6 4.8 0.00 0.00 0.00 52 1021.6
20260831204522 24 270 3.2 6.4 0.00 0.00 0.00 51 1021.8
20260831203621 24 216 1.6 8.0 0.00 0.00 0.00 52 1021.7
20260831201624 24 262 4.8 11.3 0.00 0.00 0.00 52 1021.7
20260831200624 24 233 6.4 9.7 0.00 0.00 0.00 51 1021.7
20260831195722 24 294 6.4 9.7 0.00 0.00 0.00 52 1021.7
20260831195639 24 313 1.6 3.2 0.00 0.00 0.00 51 1021.8
20260831194624 24 247 3.2 6.4 0.00 0.00 0.00 49 1021.8
20260831193622 25 292 6.4 14.5 0.00 0.00 0.00 47 1021.8
20260831193524 25 328 4.8 16.1 0.00 0.00 0.00 47 1021.9
20260831192523 25 266 4.8 8.0 0.00 0.00 0.00 44 1022.1
20260831191622 26 160 0.0 1.6 0.00 0.00 0.00 44 1022.1
20260831190722 25 217 4.8 8.0 0.00 0.00 0.00 43 1022.2
20260831185723 25 225 3.2 8.0 0.00 0.00 0.00 44 1022.2
20260831184723 25 217 4.8 8.0 0.00 0.00 0.00 42 1022.4
20260831184624 25 214 4.8 6.4 0.00 0.00 0.00 43 1022.4
20260831183640 25 314 0.0 3.2 0.00 0.00 0.00 45 1022.6
20260831181723 23 251 3.2 8.0 0.00 0.00 0.00 46 1022.9
20260831180725 23 297 1.6 3.2 0.00 0.00 0.00 44 1022.8
20260831175722 23 279 4.8 8.0 0.00 0.00 0.00 47 1022.8
20260831174724 24 288 0.0 3.2 0.00 0.00 0.00 48 1023.0
20260831173723 24 264 1.6 6.4 0.00 0.00 0.00 47 1022.8
20260831172740 24 24 0.0 4.8 0.00 0.00 0.00 49 1023.0
20260831171723 24 270 3.2 6.4 0.00 0.00 0.00 46 1022.9
20260831170723 23 247 0.0 0.0 0.00 0.00 0.00 47 1023.2
20260831162938 23 146 4.8 8.0 0.00 0.00 0.00 53 1023.5
20260831161923 23 163 4.8 8.0 0.00 0.00 0.00 53 1023.5
20260831160923 23 157 0.0 0.0 0.00 0.00 0.00 54 1023.5
20260831155924 22 225 0.0 0.0 0.00 0.00 0.00 54 1023.9
20260831155022 22 157 0.0 1.6 0.00 0.00 0.00 55 1023.8
20260831154024 22 157 0.0 0.0 0.00 0.00 0.00 55 1023.8
20260831153021 23 157 3.2 4.8 0.00 0.00 0.00 56 1023.8
20260831152923 22 157 0.0 0.0 0.00 0.00 0.00 55 1023.7
20260831151941 22 157 0.0 0.0 0.00 0.00 0.00 57 1023.7
20260831151024 22 247 1.6 4.8 0.00 0.00 0.00 57 1023.8
20260831145925 22 231 1.6 6.4 0.00 0.00 0.00 59 1023.8
20260831144023 21 157 0.0 0.0 0.00 0.00 0.00 61 1024.1
20260831143025 21 157 0.0 0.0 0.00 0.00 0.00 65 1024.3
20260831142024 20 247 3.2 4.8 0.00 0.00 0.00 67 1024.3
20260831141924 20 238 1.6 4.8 0.00 0.00 0.00 68 1024.3
20260831141824 20 190 3.2 4.8 0.00 0.00 0.00 69 1024.3
20260831140821 19 337 0.0 0.0 0.00 0.00 0.00 73 1024.4
20260831140738 19 320 0.0 0.0 0.00 0.00 0.00 74 1024.5
20260831135723 18 225 0.0 0.0 0.00 0.00 0.00 78 1024.4
20260831135624 18 225 0.0 1.6 0.00 0.00 0.00 79 1024.5
20260831134623 17 157 3.2 3.2 0.00 0.00 0.00 82 1024.6
20260831134522 17 157 4.8 4.8 0.00 0.00 0.00 83 1024.6
20260831132621 16 157 3.2 4.8 0.00 0.00 0.00 87 1024.5
20260831131622 16 157 0.0 1.6 0.00 0.00 0.00 88 1024.5
20260831130623 16 157 1.6 4.8 0.00 0.00 0.00 89 1024.5
20260831125722 16 157 3.2 4.8 0.00 0.00 0.00 89 1024.6
20260831124721 15 206 1.6 3.2 0.00 0.00 0.00 89 1024.6
20260831123722 15 247 0.0 0.0 0.00 0.00 0.00 87 1024.5
20260831121721 13 135 3.2 4.8 0.00 0.00 0.00 86 1024.5
20260831120722 13 135 0.0 1.6 0.00 0.00 0.00 85 1024.4
20260831120623 13 135 1.6 3.2 0.00 0.00 0.00 85 1024.4
20260831120524 13 135 3.2 3.2 0.00 0.00 0.00 85 1024.4
20260831115622 12 135 0.0 0.0 0.00 0.00 0.00 85 1024.2
20260831115524 12 135 0.0 0.0 0.00 0.00 0.00 85 1024.2
20260831114440 12 135 0.0 0.0 0.00 0.00 0.00 85 1024.2
20260831113522 12 135 1.6 3.2 0.00 0.00 0.00 85 1024.2
20260831112523 11 315 0.0 0.0 0.00 0.00 0.00 86 1024.0
20260831111621 11 315 0.0 0.0 0.00 0.00 0.00 86 1023.9
20260831111523 11 315 0.0 0.0 0.00 0.00 0.00 86 1023.9
20260831110622 11 315 0.0 0.0 0.00 0.00 0.00 87 1023.9
20260831105623 11 315 0.0 0.0 0.00 0.00 0.00 87 1023.9
20260831104622 11 315 0.0 0.0 0.00 0.00 0.00 86 1023.9
20260831103622 11 315 0.0 0.0 0.00 0.00 0.00 87 1023.7
20260831102622 11 315 0.0 0.0 0.00 0.00 0.00 87 1023.5
20260831101721 12 315 0.0 0.0 0.00 0.00 0.00 87 1023.5
20260831101640 12 315 0.0 0.0 0.00 0.00 0.00 87 1023.5
20260831100622 12 315 0.0 0.0 0.00 0.00 0.00 87 1023.7
20260831094721 12 315 0.0 0.0 0.00 0.00 0.00 87 1023.5
20260831092722 12 315 0.0 0.0 0.00 0.00 0.00 87 1023.4
20260831091724 12 315 0.0 0.0 0.00 0.00 0.00 86 1023.3
20260831090822 12 315 0.0 0.0 0.00 0.00 0.00 86 1023.3
20260831083922 13 315 0.0 0.0 0.00 0.00 0.00 87 1022.9
20260831082922 13 315 0.0 0.0 0.00 0.00 0.00 86 1023.1
20260831081921 13 315 0.0 0.0 0.00 0.00 0.00 86 1022.9
20260831075921 13 315 0.0 0.0 0.00 0.00 0.00 87 1022.7
20260831074923 13 315 0.0 0.0 0.00 0.00 0.00 88 1022.6
20260831073922 13 315 0.0 0.0 0.00 0.00 0.00 88 1022.8
20260831072823 13 315 0.0 0.0 0.00 0.00 0.00 87 1022.4
20260831070837 14 315 0.0 0.0 0.00 0.00 0.00 88 1022.5
20260831065921 14 315 0.0 0.0 0.00 0.00 0.00 88 1022.4
20260831063940 15 315 0.0 0.0 0.00 0.00 0.00 89 1022.4
20260831063024 15 315 0.0 0.0 0.00 0.00 0.00 89 1022.4
20260831062023 15 315 0.0 0.0 0.00 0.00 0.00 88 1022.4
20260831061023 15 315 0.0 0.0 0.00 0.00 0.00 89 1022.5
20260831055023 15 315 0.0 0.0 0.00 0.00 0.00 88 1022.5
20260831054040 16 315 0.0 0.0 0.00 0.00 0.00 87 1022.4
20260831052022 16 315 0.0 0.0 0.00 0.00 0.00 87 1022.3
20260831051939 16 315 0.0 0.0 0.00 0.00 0.00 86 1022.2
20260831051022 16 315 0.0 0.0 0.00 0.00 0.00 86 1021.9
20260831050021 17 315 0.0 0.0 0.00 0.00 0.00 85 1022.0
20260831045022 17 315 0.0 0.0 0.00 0.00 0.00 85 1021.9
20260831042138 17 337 0.0 0.0 0.00 0.00 0.00 83 1021.6
20260831040237 17 337 0.0 0.0 0.00 0.00 0.00 82 1021.7
20260831035321 18 337 0.0 0.0 0.00 0.00 0.00 80 1021.6
20260831034238 18 337 0.0 0.0 0.00 0.00 0.00 80 1021.6
20260831033323 18 353 1.6 3.2 0.00 0.00 0.00 80 1021.5
20260831030621 19 22 0.0 1.6 0.00 0.00 0.00 79 1021.7
20260831024622 19 337 1.6 4.8 0.00 0.00 0.00 78 1021.5
20260831022621 20 253 0.0 4.8 0.00 0.00 0.00 77 1021.2
20260831021621 20 272 0.0 3.2 0.00 0.00 0.00 77 1021.2
20260831021537 20 303 0.0 1.6 0.00 0.00 0.00 76 1021.2
20260831020624 20 329 3.2 4.8 0.00 0.00 0.00 75 1021.3
20260831015622 20 315 0.0 0.0 0.00 0.00 0.00 75 1021.2
20260831014622 20 294 3.2 11.3 0.00 0.00 0.00 76 1021.1
20260831013623 20 302 4.8 8.0 0.00 0.00 0.00 76 1021.1
20260831012722 20 335 0.0 3.2 0.00 0.00 0.00 76 1021.0
20260831011723 20 293 3.2 8.0 0.00 0.00 0.00 76 1020.9
20260831011622 20 287 6.4 9.7 0.00 0.00 0.00 76 1020.9
20260831010621 20 298 4.8 12.9 0.00 0.00 0.00 74 1020.8
20260831005623 20 247 3.2 6.4 0.00 0.00 0.00 75 1020.8
20260831005537 20 247 3.2 6.4 0.00 0.00 0.00 75 1020.7
20260831004540 21 276 4.8 11.3 0.00 0.00 0.00 74 1020.2
20260831003524 21 255 8.0 11.3 0.00 0.00 0.00 73 1020.2
20260831002523 21 270 8.0 17.7 0.00 0.00 0.00 73 1020.0
20260831002422 21 250 12.9 22.5 0.00 0.00 0.00 73 1019.9
20260831000521 21 235 6.4 11.3 0.00 0.00 0.00 71 1019.6
20260830235522 21 249 4.8 8.0 0.00 0.00 0.00 72 1019.6
20260830235422 21 271 6.4 16.1 0.00 0.00 0.00 71 1019.5
20260830233423 21 237 8.0 14.5 0.00 0.00 0.00 71 1019.5
20260830232420 21 267 3.2 12.9 0.00 0.00 0.00 70 1019.5